Wainwright, AK

1:12 PM AKST on December 06, 2016 (GMT -0900)
Wiley Post-Will Rogers Memorial

Weather History for PABR - March, 2014

Change the Weather History Date:

Monday, March 24, 2014

  Actual Average Record
Temperature  
Mean Temperature 2 °F -11 °F  
Max Temperature 10 °F -5 °F 18 °F (2002)
Min Temperature -7 °F -18 °F -51 °F (1925)
Degree Days  
Heating Degree Days 63 76  
Month to date heating degree days 1702 1882  
Since 1 July heating degree days 13364 14730  
Cooling Degree Days 0    
Month to date cooling degree days 0  
Year to date cooling degree days 0  
Moisture  
Dew Point -5 °F    
Average Humidity 0    
Maximum Humidity 0    
Minimum Humidity 0    
Precipitation  
Precipitation 0.00 in 0.01 in 0.06 in (1947)
Month to date precipitation 0.05 0.07  
Year to date precipitation 0.42 0.34  
Snow  
Snow 0.00 in 0.10 in 0.70 in (1993)
Month to date snowfall 1.7 1.6  
Since 1 July snowfall 44.3 30.6  
Snow Depth 8.00 in    
Sea Level Pressure  
Sea Level Pressure 30.48 in    
Wind  
Wind Speed 10 mph (ESE)    
Max Wind Speed 16 mph    
Max Gust Speed 19 mph    
Visibility 8 miles    
Events Fog    
T = Trace of Precipitation, MM = Missing Value Source: NWS Daily Summary

Daily Weather History Graph

Daily Weather History Graph

Search for Another Location

Airport or City:

Trip Planner

Search our weather history database for the weather conditions in past years. The results will help you decide how hot, cold, wet, or windy it might be!

Date:

Astronomy

Mar. 24, 2014 Rise Set
Actual Time 8:04 AM AKDT 9:04 PM AKDT
Civil Twilight 6:57 AM AKDT 10:12 PM AKDT
Nautical Twilight 5:27 AM AKDT 11:44 PM AKDT
Astronomical Twilight 3:05 AM AKDT 2:00 AM AKDT
Moon 8:02 AM AKDT (3/24) 10:26 AM AKDT (3/24)
Length of Visible Light 15h 14m
Length of Day
13h 00m
Last Quarter, 41% of the Moon is Illuminated
Mar 24
Last Quarter
Mar 30
New
Apr 7
First Quarter
Apr 14
Full
Apr 21
Last Quarter

Hourly Weather History & Observations

Time (AKDT) Temp. Windchill Dew Point Humidity Pressure Visibility Wind Dir Wind Speed Gust Speed Precip Events Conditions
12:53 AM 5.0 °F -5.6 °F -0.9 °F 76% 30.55 in 10.0 mi West 5.8 mph - N/A   Partly Cloudy
1:53 AM 5.0 °F -2.1 °F -0.0 °F 80% 30.54 in 10.0 mi West 3.5 mph - N/A   Partly Cloudy
2:53 AM 3.9 °F - 1.0 °F 88% 30.53 in 10.0 mi Calm Calm - N/A   Partly Cloudy
3:53 AM 6.1 °F -0.9 °F 1.9 °F 83% 30.53 in 10.0 mi NNE 3.5 mph - N/A   Partly Cloudy
4:53 AM 3.9 °F -6.9 °F 1.0 °F 88% 30.52 in 10.0 mi ENE 5.8 mph - N/A Fog Patches of Fog
5:51 AM -5.8 °F -22.4 °F -9.4 °F 84% 30.51 in 0.8 mi East 9.2 mph - N/A Fog Shallow Fog
5:53 AM -5.1 °F -21.5 °F -8.0 °F 87% 30.52 in 0.8 mi East 9.2 mph - N/A Fog Shallow Fog
6:01 AM -0.9 °F -17.4 °F -4.0 °F 87% 30.51 in 1.5 mi East 10.4 mph - N/A Fog Shallow Fog
6:03 AM 1.0 °F -15.8 °F -2.9 °F 83% 30.51 in 3.0 mi East 11.5 mph - N/A Fog Shallow Fog
6:40 AM -2.0 °F -18.7 °F -6.0 °F 83% 30.51 in 1.0 mi East 10.4 mph - N/A Fog Shallow Fog
6:53 AM -5.1 °F -22.5 °F -8.0 °F 87% 30.51 in 0.5 mi ESE 10.4 mph - N/A Fog Shallow Fog
7:00 AM -2.9 °F -17.7 °F -7.1 °F 82% 30.51 in 1.0 mi ESE 8.1 mph - N/A   Scattered Clouds
7:32 AM -5.1 °F -21.5 °F -8.0 °F 87% 30.51 in 3.0 mi SE 9.2 mph - N/A   Scattered Clouds
7:53 AM -5.1 °F -22.5 °F -9.0 °F 83% 30.51 in 10.0 mi SE 10.4 mph - N/A   Scattered Clouds
8:53 AM -5.1 °F -22.5 °F -9.0 °F 83% 30.50 in 10.0 mi ESE 10.4 mph - N/A   Partly Cloudy
9:53 AM -4.0 °F -22.1 °F -8.0 °F 83% 30.51 in 10.0 mi SE 11.5 mph - N/A   Partly Cloudy
10:53 AM -5.1 °F -22.5 °F -9.9 °F 80% 30.50 in 10.0 mi ESE 10.4 mph - N/A   Partly Cloudy
11:53 AM -4.0 °F -20.2 °F -9.0 °F 79% 30.50 in 10.0 mi ESE 9.2 mph - N/A   Partly Cloudy
12:53 PM -0.0 °F -17.1 °F -6.0 °F 76% 30.49 in 10.0 mi ESE 11.5 mph - N/A   Partly Cloudy
1:53 PM 3.9 °F -12.2 °F -2.9 °F 73% 30.48 in 10.0 mi SE 11.5 mph - N/A   Partly Cloudy
2:53 PM 3.9 °F -11.3 °F -2.0 °F 76% 30.47 in 10.0 mi East 10.4 mph - N/A   Partly Cloudy
3:53 PM 6.1 °F -9.5 °F -0.9 °F 73% 30.46 in 10.0 mi ESE 11.5 mph - N/A   Partly Cloudy
4:53 PM 6.1 °F -8.7 °F -0.9 °F 73% 30.45 in 10.0 mi East 10.4 mph - N/A   Partly Cloudy
5:53 PM 7.0 °F -8.3 °F -0.9 °F 70% 30.44 in 10.0 mi East 11.5 mph - N/A   Partly Cloudy
6:53 PM 6.1 °F -8.7 °F -0.9 °F 73% 30.43 in 10.0 mi ESE 10.4 mph - N/A   Partly Cloudy
7:53 PM 1.9 °F -16.2 °F -4.0 °F 76% 30.42 in 10.0 mi ESE 13.8 mph - N/A   Partly Cloudy
8:53 PM 1.0 °F -16.6 °F -5.1 °F 75% 30.41 in 10.0 mi ESE 12.7 mph - N/A   Scattered Clouds
9:53 PM -0.0 °F -18.0 °F -6.0 °F 76% 30.40 in 10.0 mi ESE 12.7 mph - N/A   Scattered Clouds
10:53 PM -0.9 °F -19.9 °F -7.1 °F 75% 30.39 in 10.0 mi East 13.8 mph - N/A   Partly Cloudy
11:53 PM -2.9 °F -21.6 °F -9.0 °F 75% 30.38 in 10.0 mi East 12.7 mph - N/A   Partly Cloudy